| time (UTC) | temp C | wind direction | speed KPH | gust KPH | rain 1hr cm | rain 24hr cm | rain mn cm | humidity % | barometer mb |
| 20260504192120 | -17 | 90 | 0.0 | 3.2 | 0.00 | 0.00 | 0.00 | 1010.3 | |
| 20260504191314 | -17 | 90 | 0.0 | 1.6 | 0.00 | 0.00 | 0.00 | 1010.2 | |
| 20260504190506 | -17 | 90 | 0.0 | 3.2 | 0.00 | 0.00 | 0.00 | 1010.1 | |
| 20260504185703 | -17 | 90 | 0.0 | 3.2 | 0.00 | 0.00 | 0.00 | 1009.9 | |
| 20260504184859 | -17 | 90 | 3.2 | 3.2 | 0.00 | 0.00 | 0.00 | 1009.9 | |
| 20260504184057 | -17 | 90 | 0.0 | 0.0 | 0.00 | 0.00 | 0.00 | 1009.7 | |
| 20260504183252 | -17 | 90 | 0.0 | 4.8 | 0.00 | 0.00 | 0.00 | 1009.6 | |
| 20260504182445 | -17 | 90 | 0.0 | 0.0 | 0.00 | 0.00 | 0.00 | 1009.4 | |
| 20260504181638 | -17 | 135 | 0.0 | 3.2 | 0.00 | 0.00 | 0.00 | 1009.2 | |
| 20260504180836 | -17 | 180 | 0.0 | 8.0 | 0.00 | 0.00 | 0.00 | 1009.1 | |
| 20260504180032 | -17 | 225 | 0.0 | 3.2 | 0.00 | 0.00 | 0.00 | 1008.9 | |
| 20260504175229 | -17 | 315 | 0.0 | 1.6 | 0.00 | 0.00 | 0.00 | 1008.8 | |
| 20260504174426 | -17 | 225 | 0.0 | 3.2 | 0.00 | 0.00 | 0.00 | 1008.7 | |
| 20260504173625 | -17 | 225 | 3.2 | 4.8 | 0.00 | 0.00 | 0.00 | 1008.7 | |
| 20260504172819 | -17 | 270 | 3.2 | 11.3 | 0.00 | 0.00 | 0.00 | 1008.5 | |
| 20260504172013 | -17 | 270 | 1.6 | 4.8 | 0.00 | 0.00 | 0.00 | 1008.5 | |
| 20260504171213 | -17 | 135 | 0.0 | 3.2 | 0.00 | 0.00 | 0.00 | 1008.5 | |
| 20260504170409 | -17 | 315 | 1.6 | 1.6 | 0.00 | 0.00 | 0.00 | 1008.4 | |
| 20260504151055 | -17 | 270 | 6.4 | 12.9 | 0.00 | 0.00 | 0.00 | 1007.9 | |
| 20260504150252 | -17 | 270 | 4.8 | 12.9 | 0.00 | 0.00 | 0.00 | 1008.1 | |
| 20260504140622 | -17 | 315 | 3.2 | 19.3 | 0.00 | 0.00 | 0.00 | 1008.4 | |
| 20260504130151 | -17 | 90 | 9.7 | 16.1 | 0.00 | 0.00 | 0.00 | 1009.1 | |
| 20260504100427 | -17 | 270 | 4.8 | 11.3 | 0.00 | 0.00 | 0.00 | 1011.3 | |
| 20260504081922 | -17 | 315 | 3.2 | 11.3 | 0.00 | 0.00 | 0.00 | 1012.0 | |
| 20260504081118 | -17 | 270 | 4.8 | 9.7 | 0.00 | 0.00 | 0.00 | 1011.8 | |
| 20260504080312 | -17 | 135 | 6.4 | 8.0 | 0.00 | 0.00 | 0.00 | 1011.5 | |
| 20260504060203 | -17 | 315 | 4.8 | 12.9 | 0.00 | 0.00 | 0.00 | 1012.7 | |
| 20260504045705 | -17 | 270 | 4.8 | 9.7 | 0.00 | 0.00 | 0.00 | 1012.9 | |
| 20260504044900 | -17 | 270 | 3.2 | 8.0 | 0.00 | 0.00 | 0.00 | 1012.9 | |
| 20260504044057 | -17 | 315 | 3.2 | 8.0 | 0.00 | 0.00 | 0.00 | 1012.9 | |
| 20260504043250 | -17 | 270 | 1.6 | 3.2 | 0.00 | 0.00 | 0.00 | 1013.2 | |
| 20260504042446 | -17 | 315 | 0.0 | 1.6 | 0.00 | 0.00 | 0.00 | 1013.1 | |
| 20260504041641 | -17 | 315 | 0.0 | 3.2 | 0.00 | 0.00 | 0.00 | 1013.1 | |
| 20260504040834 | -17 | 315 | 3.2 | 4.8 | 0.00 | 0.00 | 0.00 | 1013.1 | |
| 20260504040029 | -17 | 135 | 1.6 | 8.0 | 0.00 | 0.00 | 0.00 | 1013.0 | |
| 20260504035223 | -17 | 90 | 0.0 | 3.2 | 0.00 | 0.00 | 0.00 | 1013.2 | |
| 20260504034420 | -17 | 270 | 1.6 | 3.2 | 0.00 | 0.00 | 0.00 | 1013.2 | |
| 20260504033616 | -17 | 270 | 1.6 | 6.4 | 0.00 | 0.00 | 0.00 | 1013.2 | |
| 20260504032812 | -17 | 135 | 0.0 | 0.0 | 0.00 | 0.00 | 0.00 | 1013.7 | |
| 20260504032007 | -17 | 270 | 0.0 | 3.2 | 0.00 | 0.00 | 0.00 | 1013.7 | |
| 20260504031203 | -17 | 90 | 0.0 | 1.6 | 0.00 | 0.00 | 0.00 | 1013.8 | |
| 20260504030400 | -17 | 90 | 0.0 | 0.0 | 0.00 | 0.00 | 0.00 | 1013.8 | |
| 20260504025556 | -17 | 90 | 0.0 | 1.6 | 0.00 | 0.00 | 0.00 | 1013.8 | |
| 20260504024751 | -17 | 90 | 0.0 | 1.6 | 0.00 | 0.00 | 0.00 | 1013.8 | |
| 20260504023950 | -17 | 90 | 0.0 | 3.2 | 0.00 | 0.00 | 0.00 | 1013.7 | |
| 20260504023144 | -17 | 315 | 0.0 | 1.6 | 0.00 | 0.00 | 0.00 | 1013.8 | |
| 20260504022339 | -17 | 90 | 0.0 | 1.6 | 0.00 | 0.00 | 0.00 | 1013.8 | |
| 20260504021536 | -17 | 90 | 0.0 | 1.6 | 0.00 | 0.00 | 0.00 | 1013.9 | |
| 20260504020731 | -17 | 90 | 0.0 | 3.2 | 0.00 | 0.00 | 0.00 | 1013.8 | |
| 20260504015928 | -17 | 90 | 0.0 | 1.6 | 0.00 | 0.00 | 0.00 | 1013.7 | |
| 20260504015124 | -17 | 90 | 0.0 | 1.6 | 0.00 | 0.00 | 0.00 | 1013.5 | |
| 20260504014320 | -17 | 90 | 0.0 | 3.2 | 0.00 | 0.00 | 0.00 | 1013.5 | |
| 20260504013514 | -17 | 315 | 0.0 | 1.6 | 0.00 | 0.00 | 0.00 | 1013.3 | |
| 20260504012714 | -17 | 270 | 1.6 | 6.4 | 0.00 | 0.00 | 0.00 | 1013.0 | |
| 20260504011909 | -17 | 180 | 0.0 | 6.4 | 0.00 | 0.00 | 0.00 | 1013.1 | |
| 20260504011103 | -17 | 270 | 1.6 | 4.8 | 0.00 | 0.00 | 0.00 | 1013.0 | |
| 20260504010259 | -17 | 315 | 1.6 | 4.8 | 0.00 | 0.00 | 0.00 | 1013.1 | |
| 20260504005459 | -17 | 270 | 0.0 | 3.2 | 0.00 | 0.00 | 0.00 | 1012.9 | |
| 20260504004656 | -17 | 270 | 0.0 | 6.4 | 0.00 | 0.00 | 0.00 | 1013.0 | |
| 20260504003853 | -17 | 315 | 3.2 | 4.8 | 0.00 | 0.00 | 0.00 | 1013.0 | |
| 20260504003049 | -17 | 315 | 1.6 | 4.8 | 0.00 | 0.00 | 0.00 | 1012.9 | |
| 20260504002248 | -17 | 315 | 0.0 | 4.8 | 0.00 | 0.00 | 0.00 | 1012.9 | |
| 20260504001446 | -17 | 270 | 0.0 | 8.0 | 0.00 | 0.00 | 0.00 | 1012.9 | |
| 20260504000644 | -17 | 270 | 3.2 | 9.7 | 0.00 | 0.00 | 0.00 | 1012.8 | |
| 20260503235840 | -17 | 270 | 3.2 | 6.4 | 0.00 | 0.00 | 0.00 | 1012.9 | |
| 20260503235036 | -17 | 270 | 1.6 | 9.7 | 0.00 | 0.00 | 0.00 | 1013.0 | |
| 20260503234229 | -17 | 225 | 1.6 | 9.7 | 0.00 | 0.00 | 0.00 | 1013.0 | |
| 20260503233425 | -17 | 315 | 1.6 | 12.9 | 0.00 | 0.00 | 0.00 | 1013.0 | |
| 20260503232623 | -17 | 315 | 6.4 | 6.4 | 0.00 | 0.00 | 0.00 | 1013.1 | |
| 20260503231818 | -17 | 315 | 1.6 | 9.7 | 0.00 | 0.00 | 0.00 | 1013.1 | |
| 20260503231017 | -17 | 315 | 1.6 | 4.8 | 0.00 | 0.00 | 0.00 | 1013.2 | |
| 20260503230217 | -17 | 270 | 1.6 | 6.4 | 0.00 | 0.00 | 0.00 | 1013.2 | |
| 20260503225415 | -17 | 315 | 0.0 | 6.4 | 0.00 | 0.00 | 0.00 | 1013.1 | |
| 20260503224612 | -17 | 270 | 1.6 | 9.7 | 0.00 | 0.00 | 0.00 | 1013.2 | |
| 20260503223807 | -17 | 315 | 3.2 | 6.4 | 0.00 | 0.00 | 0.00 | 1013.3 | |
| 20260503223003 | -17 | 180 | 1.6 | 12.9 | 0.00 | 0.00 | 0.00 | 1013.2 | |
| 20260503222159 | -17 | 225 | 1.6 | 4.8 | 0.00 | 0.00 | 0.00 | 1013.4 | |
| 20260503221359 | -17 | 270 | 0.0 | 4.8 | 0.00 | 0.00 | 0.00 | 1013.3 | |
| 20260503220554 | -17 | 270 | 3.2 | 4.8 | 0.00 | 0.00 | 0.00 | 1013.3 | |
| 20260503215748 | -17 | 315 | 0.0 | 8.0 | 0.00 | 0.00 | 0.00 | 1013.3 | |
| 20260503214945 | -17 | 270 | 3.2 | 11.3 | 0.00 | 0.00 | 0.00 | 1013.2 | |
| 20260503214143 | -17 | 315 | 6.4 | 8.0 | 0.00 | 0.00 | 0.00 | 1013.2 | |
| 20260503213340 | -17 | 225 | 4.8 | 14.5 | 0.00 | 0.00 | 0.00 | 1013.1 | |
| 20260503212537 | -17 | 270 | 3.2 | 8.0 | 0.00 | 0.00 | 0.00 | 1013.1 | |
| 20260503211733 | -17 | 270 | 6.4 | 9.7 | 0.00 | 0.00 | 0.00 | 1013.0 | |
| 20260503210927 | -17 | 293 | 3.2 | 9.7 | 0.00 | 0.00 | 0.00 | 1013.0 | |
| 20260503210125 | -17 | 315 | 6.4 | 11.3 | 0.00 | 0.00 | 0.00 | 1013.0 | |
| 20260503205320 | -17 | 270 | 6.4 | 12.9 | 0.00 | 0.00 | 0.00 | 1013.0 | |
| 20260503204515 | -17 | 270 | 6.4 | 17.7 | 0.00 | 0.00 | 0.00 | 1013.0 | |
| 20260503203708 | -17 | 270 | 3.2 | 19.3 | 0.00 | 0.00 | 0.00 | 1013.1 | |
| 20260503202901 | -17 | 225 | 8.0 | 12.9 | 0.00 | 0.00 | 0.00 | 1013.0 | |
| 20260503202101 | -17 | 315 | 8.0 | 11.3 | 0.00 | 0.00 | 0.00 | 1013.1 | |
| 20260503201252 | -17 | 315 | 4.8 | 6.4 | 0.00 | 0.00 | 0.00 | 1013.0 | |
| 20260503200447 | -17 | 315 | 3.2 | 9.7 | 0.00 | 0.00 | 0.00 | 1013.1 | |
| 20260503195645 | -17 | 270 | 3.2 | 14.5 | 0.00 | 0.00 | 0.00 | 1013.2 | |
| 20260503194841 | -17 | 315 | 1.6 | 8.0 | 0.00 | 0.00 | 0.00 | 1013.1 | |
| 20260503194037 | -17 | 315 | 3.2 | 4.8 | 0.00 | 0.00 | 0.00 | 1013.1 | |
| 20260503193231 | -17 | 270 | 1.6 | 4.8 | 0.00 | 0.00 | 0.00 | 1013.2 |